Notices

What's New in latest Release from April 7th, 2021:

- Updated Glossary, including Speed of Maximum Gust, and Total Hourly Precipitation

- Updated national and regional climate services offices contacts and prices information

- Addition of station inventory lists for 1981-2010, 1971-2000, and 1961-1990 Normals.

If you haven't already, please take our survey and provide feedback about our website: https://eccc.sondage-survey.ca/f/LanguageSelection.aspx?s=442ca660-fcf1-47c0-95a9-59707d6fd709

Hourly Data Report for August 22, 2003

TORONTO CITY
ONTARIO

43°40'00.000" N
79°24'00.000" W
112.50 m
6158355
71508
XTO

Download Data

Hourly Data (August 2003)
Hourly Data Report for August 22, 2003
TIME
LST
Temp Definition
°C
Dew Point Definition
°C
Rel Hum Definition
%
Precip. Amount Definition
mm

Wind Dir Definition
10's deg

Wind Spd Definition
km/h
Visibility Definition
km
Stn Press Definition
kPa
Hmdx Definition


Wind Chill Definition


Weather Definition


00:00 21.3 20.7 96   LegendMM LegendMM LegendMM 99.63 29   LegendNANA
01:00 21.0 20.4 96   LegendMM LegendMM LegendMM 99.58 29   LegendNANA
02:00 22.8 21.7 94   LegendMM LegendMM LegendMM 99.56 32   LegendNANA
03:00 21.7 20.8 95   LegendMM LegendMM LegendMM 99.50 30   LegendNANA
04:00 22.0 20.1 89   LegendMM LegendMM LegendMM 99.62 30   LegendNANA
05:00 21.6 18.7 84   LegendMM LegendMM LegendMM 99.65 28   LegendNANA
06:00 21.0 18.4 85   LegendMM LegendMM LegendMM 99.72 27   LegendNANA
07:00 21.2 17.1 77   LegendMM LegendMM LegendMM 99.78 27   LegendNANA
08:00 21.8 16.6 72   LegendMM LegendMM LegendMM 99.78 27   LegendNANA
09:00 22.8 16.8 69   LegendMM LegendMM LegendMM 99.81 28   LegendNANA
10:00 23.7 14.2 55   LegendMM LegendMM LegendMM 99.89 27   LegendNANA
11:00 24.7 14.0 51   LegendMM LegendMM LegendMM 99.94 28   LegendNANA
12:00 24.9 14.1 51   LegendMM LegendMM LegendMM 99.91 28   LegendNANA
13:00 25.5 12.7 45   LegendMM LegendMM LegendMM 99.92 28   LegendNANA
14:00 26.4 12.7 43   LegendMM LegendMM LegendMM 99.92 29   LegendNANA
15:00 26.9 12.3 40   LegendMM LegendMM LegendMM 99.88 29   LegendNANA
16:00 26.4 12.2 41   LegendMM LegendMM LegendMM 99.85 29   LegendNANA
17:00 26.3 12.1 41   LegendMM LegendMM LegendMM 99.82 29   LegendNANA
18:00 25.3 11.4 42   LegendMM LegendMM LegendMM 99.82 27   LegendNANA
19:00 24.1 10.9 43   LegendMM LegendMM LegendMM 99.87 26   LegendNANA
20:00 23.1 12.0 50   LegendMM LegendMM LegendMM 99.92 25   LegendNANA
21:00 22.0 12.8 56   LegendMM LegendMM LegendMM 99.98 25   LegendNANA
22:00 21.1 13.5 62   LegendMM LegendMM LegendMM 100.00     LegendNANA
23:00 20.2 13.7 66   LegendMM LegendMM LegendMM 100.01     LegendNANA

Notes on Data Quality.

Legend

  • E = Estimated
  • M = Missing
  • NA = Not Available*
  • [empty] = Indicates an unobserved value
Date modified: